EW9070 Weather Reports


time (UTC)temp
F
wind
direction
speed
knots
gust
knots
rain 1hr
in
rain 24hr
in
rain mn
in
humidity
%
barometer
mb
20260506181511 67 274 0.0 0.0 0.00 0.00 0.00 75 1020.8
20260506180012 66 338 0.0 0.0 0.00 0.00 0.00 75 1020.8
20260506174506 65 265 0.0 0.0 0.00 0.00 0.00 77 1020.8
20260506173005 65 279 0.0 0.0 0.00 0.00 0.00 78 1020.9
20260506171508 63 295 0.0 0.0 0.00 0.00 0.00 79 1021.0
20260506170004 63 243 0.0 0.0 0.00 0.00 0.00 78 1021.2
20260506164602 61 5 0.0 0.0 0.00 0.00 0.00 81 1021.1
20260506163104 60 12 0.0 0.0 0.00 0.00 0.00 82 1021.1
20260506161604 59 276 0.0 0.0 0.00 0.00 0.00 82 1021.2
20260506160051 59 67 0.0 0.0 0.00 0.00 0.00 83 1021.2
20260506154608 59 68 0.0 0.0 0.00 0.00 0.00 82 1021.2
20260506153047 58 163 0.0 0.0 0.00 0.00 0.00 82 1021.1
20260506151545 57 98 0.0 0.0 0.00 0.00 0.00 80 1021.0
20260506150047 56 111 0.0 0.0 0.00 0.00 0.00 77 1021.0
20260506144547 56 110 0.0 0.0 0.00 0.00 0.00 76 1021.1
20260506143036 55 22 0.0 0.0 0.00 0.00 0.00 75 1021.0
20260506141537 55 249 0.0 0.0 0.00 0.00 0.00 75 1020.8
20260506140034 55 66 0.0 0.0 0.00 0.00 0.00 75 1020.7
20260506134531 55 285 0.0 0.0 0.00 0.00 0.00 75 1020.7
20260506133042 55 285 0.0 0.0 0.00 0.00 0.00 76 1020.6
20260506131532 55 285 0.0 0.0 0.00 0.00 0.00 76 1020.6
20260506130028 55 285 0.0 0.0 0.00 0.00 0.00 75 1020.5
20260506124524 55 285 0.0 0.0 0.00 0.00 0.00 76 1020.3
20260506123024 55 285 0.0 0.0 0.00 0.00 0.00 76 1020.3
20260506121523 55 285 0.0 0.0 0.00 0.00 0.00 76 1020.2
20260506120034 54 285 0.0 0.0 0.00 0.00 0.00 76 1020.1
20260506114521 54 285 0.0 0.0 0.00 0.00 0.00 77 1020.0
20260506113020 54 285 0.0 0.0 0.00 0.00 0.00 76 1020.0
20260506111518 54 285 0.0 0.0 0.00 0.00 0.00 77 1019.9
20260506110017 54 285 0.0 0.0 0.00 0.00 0.00 77 1019.7
20260506104516 54 285 0.0 0.0 0.00 0.00 0.00 77 1019.8
20260506103015 54 285 0.0 0.0 0.00 0.00 0.00 77 1019.6
20260506101517 54 284 0.0 0.0 0.00 0.00 0.00 77 1019.4
20260506100025 54 284 0.0 0.0 0.00 0.00 0.00 77 1019.4
20260506094513 54 284 0.0 0.0 0.00 0.02 0.00 78 1019.3
20260506093014 54 284 0.0 0.0 0.00 0.02 0.00 78 1019.4
20260506091513 54 284 0.0 0.0 0.00 0.02 0.00 78 1019.4
20260506090012 54 284 0.0 0.0 0.00 0.02 0.00 78 1019.4
20260506084510 54 284 0.0 0.0 0.00 0.05 0.00 79 1019.4
20260506083010 54 284 0.0 0.0 0.00 0.05 0.00 79 1019.5
20260506081510 54 284 0.0 0.0 0.00 0.05 0.00 79 1019.4
20260506073003 54 324 0.0 0.0 0.00 0.05 0.00 80 1019.1
20260506071503 54 355 0.0 0.0 0.00 0.05 0.00 80 1018.9
20260506061557 54 308 0.0 0.0 0.00 0.11 0.05 80 1018.6
20260506044602 54 323 0.0 0.0 0.00 0.11 0.05 81 1017.8
20260506043045 55 318 0.0 0.0 0.00 0.11 0.05 82 1017.5
20260506041545 55 316 0.0 0.0 0.00 0.11 0.05 82 1017.4
20260506040045 55 313 0.0 0.0 0.00 0.11 0.05 83 1017.2
20260506034542 56 319 0.0 0.0 0.00 0.11 0.05 83 1017.1
20260506033040 57 299 0.0 0.0 0.00 0.11 0.05 82 1016.8
20260506031535 58 304 0.0 0.0 0.00 0.11 0.05 80 1016.4
20260506030034 59 281 0.0 0.0 0.00 0.11 0.05 78 1016.2
20260506024536 59 306 0.0 0.0 0.00 0.16 0.05 78 1016.1
20260506023043 59 306 0.0 0.0 0.00 0.16 0.05 77 1016.0
20260506021535 59 322 0.0 0.0 0.00 0.16 0.05 77 1015.9
20260506020034 59 327 0.0 0.0 0.00 0.16 0.05 76 1015.7
20260506014530 60 360 0.0 0.0 0.00 0.20 0.05 76 1015.6
20260506013030 60 336 0.0 0.0 0.00 0.20 0.05 76 1015.6
20260506011532 61 355 0.0 0.0 0.00 0.20 0.05 76 1015.6
20260506010044 61 13 0.0 0.0 0.00 0.20 0.05 76 1015.5
20260506004529 61 13 0.0 0.0 0.00 0.23 0.05 75 1015.5
20260506003029 62 5 0.0 0.0 0.00 0.23 0.05 73 1015.5
20260506001528 63 40 0.0 0.0 0.00 0.23 0.05 74 1015.3
20260506000028 63 360 0.0 0.0 0.00 0.23 0.05 74 1015.2
20260505234536 63 15 0.0 0.0 0.00 0.26 0.05 73 1015.3
20260505233034 64 25 0.0 0.0 0.00 0.26 0.05 72 1015.2
20260505231531 64 350 0.0 0.0 0.00 0.26 0.05 74 1015.3
20260505230024 64 343 0.0 0.0 0.00 0.26 0.05 73 1015.2
20260505224523 64 302 0.0 0.0 0.00 0.28 0.05 74 1015.2
20260505223023 64 321 0.0 0.0 0.00 0.28 0.05 75 1015.3
20260505221523 64 320 0.0 0.0 0.00 0.28 0.05 74 1015.3
20260505220021 64 304 0.0 0.0 0.00 0.28 0.05 75 1015.4
20260505214541 64 343 0.0 0.0 0.00 0.28 0.05 74 1015.5
20260505213021 64 294 0.0 0.0 0.00 0.28 0.05 74 1015.7
20260505211517 64 15 0.0 0.0 0.00 0.28 0.05 74 1015.9
20260505210016 63 338 0.0 0.0 0.00 0.28 0.05 74 1015.9
20260505204514 63 337 0.0 0.0 0.00 0.28 0.05 75 1015.9
20260505203018 63 314 0.0 0.0 0.00 0.28 0.05 75 1016.0
20260505201517 62 23 0.0 0.0 0.00 0.28 0.05 74 1016.1
20260505200012 62 289 0.0 0.0 0.00 0.28 0.05 75 1016.1
20260505194509 62 309 0.0 0.0 0.00 0.28 0.05 75 1016.1
20260505193010 62 355 0.0 0.0 0.00 0.28 0.05 78 1016.2
20260505191508 61 48 0.0 0.0 0.00 0.28 0.05 76 1016.3
20260505190005 62 333 0.0 0.0 0.00 0.28 0.05 77 1016.2
20260505184503 61 44 0.0 0.0 0.00 0.28 0.05 75 1016.2
20260505183102 62 28 0.0 0.0 0.00 0.28 0.05 75 1016.3